[[{"header":{"parameterUnit":"m.s-1","parameterCategory":2,"la1":30.2991,"la2":30.254,"lo1":-89.0895,"lo2":-89.0444,"dy":0.0017,"dx":0.0017,"nx":28,"ny":28,"refTime":"2025-08-19T09:00:00:Z","depth":"0","parameterNumber":2,"parameterNumberName":"U-component_of_CURRENTS"},"data":[0,0,0,0,0,0,0,0,0,0,0,0,0,0,0,0,0,0,0,0,0,0,0,0,0,0,0,0,0,0,0,0,0,0,0,0,0,0,0,0,0,0,0,0,0,0,0,0,0,0,0,0,0,0,0,0,0,0,-0.3335,-0.3336,0,-0.3461,-0.3463,-0.3464,-0.3433,-0.343,-0.3428,-0.3426,-0.3366,-0.3366,-0.3367,0,0,0,0,0,0,0,0,0,0,0,0,0,-0.292,-0.2929,-0.3335,-0.3337,-0.3338,-0.3461,-0.3463,-0.3464,-0.3433,-0.343,-0.3427,-0.3425,-0.3365,-0.3366,-0.3367,0,0,0,0,0,0,0,0,0,0,0,0,0,-0.3078,-0.2931,-0.3335,-0.3338,-0.334,-0.3461,-0.3463,-0.3465,-0.3434,-0.343,-0.3427,-0.3423,-0.3365,-0.3366,-0.3367,-0.3445,0,0,-0.337,-0.337,0,0,0,0,0,0,0,0,-0.307,-0.3094,-0.3336,-0.3338,-0.334,-0.3428,-0.3294,-0.3449,-0.3435,-0.3397,-0.3426,-0.3421,-0.3373,-0.3373,-0.3406,-0.3442,-0.3439,-0.337,-0.3371,-0.3371,-0.3371,0,0,0,0,0,0,0,-0.3059,-0.3087,-0.3384,-0.3338,-0.3341,-0.3283,-0.3303,-0.3324,-0.3399,-0.34,-0.3398,-0.3415,-0.3372,-0.3405,-0.3404,-0.3438,-0.337,-0.3371,-0.3371,-0.3372,-0.3462,-0.3464,0,0,0,0,0,0,-0.3059,-0.3079,-0.338,-0.3388,-0.3194,-0.3294,-0.3316,-0.3403,-0.3403,-0.3402,-0.3418,-0.3413,-0.3406,-0.3403,-0.3401,-0.3439,-0.3371,-0.3372,-0.3372,-0.346,-0.3462,-0.3464,0,0,0,0,0,0,-0.3051,-0.3088,-0.3375,-0.323,-0.3263,-0.3306,-0.3403,-0.3407,-0.3433,-0.3419,-0.3412,-0.3437,-0.3403,-0.34,-0.3413,-0.3438,-0.3372,-0.3373,-0.3458,-0.3461,-0.3463,-0.3548,0,0,0,0,0,0,-0.304,-0.3086,-0.3148,-0.3235,-0.3272,-0.3457,-0.3407,-0.3412,-0.3449,-0.3444,-0.3434,-0.3425,-0.34,-0.3412,-0.3414,-0.3438,-0.3374,-0.3456,-0.3459,-0.3462,-0.3543,-0.3554,-0.3563,0,0,0,0,0,-0.3026,-0.3132,-0.3153,-0.3188,-0.3361,-0.346,-0.3475,-0.3487,-0.3454,-0.3491,-0.3465,-0.3425,-0.3434,-0.3416,-0.3417,-0.3441,-0.3454,-0.3458,-0.3462,-0.3539,-0.3552,-0.3562,0,0,0,0,0,0,-0.2975,-0.3143,-0.3165,-0.3316,-0.3383,-0.3454,-0.3492,-0.3499,-0.3519,-0.3495,-0.3461,-0.3454,-0.3474,-0.3455,-0.3435,-0.3477,-0.3434,-0.3439,-0.3492,-0.3504,-0.3513,-0.3485,-0.3375,0,0,0,0,0,-0.3001,-0.313,-0.3242,-0.3353,-0.3392,-0.3441,-0.348,-0.3495,-0.3522,-0.3528,-0.3519,-0.3501,-0.3503,-0.3497,-0.3502,-0.3537,-0.3447,-0.355,-0.3559,-0.3568,-0.3547,-0.3458,-0.3457,-0.3478,-0.3478,-0.3478,0,0,-0.3002,-0.3114,-0.3181,-0.3349,-0.3396,-0.3456,-0.3456,-0.3527,-0.3554,-0.3518,-0.3543,-0.3543,-0.3521,-0.3552,-0.3558,-0.3531,-0.3512,-0.3573,-0.358,-0.3554,-0.3462,-0.3459,-0.3457,-0.348,-0.348,-0.348,0,0,-0.3035,-0.3177,-0.3263,-0.3336,-0.3432,-0.3477,-0.3498,-0.3578,-0.3594,-0.3642,-0.3606,-0.3618,-0.3636,-0.3622,-0.3614,-0.3684,-0.3572,-0.369,-0.3711,-0.3627,-0.3623,-0.3618,-0.3478,-0.3461,-0.3688,-0.3688,-0.3689,0,-0.3005,-0.3148,-0.329,-0.3367,-0.3399,-0.3482,-0.3513,-0.358,-0.3644,-0.3636,-0.3649,-0.3646,-0.3664,-0.3645,-0.3693,-0.3703,-0.361,-0.3669,-0.3635,-0.3629,-0.3623,-0.348,-0.346,-0.3693,-0.3692,-0.3692,-0.3692,0,-0.3083,-0.3175,-0.3226,-0.3356,-0.3428,-0.3477,-0.3574,-0.3625,-0.3649,-0.3677,-0.3685,-0.3716,-0.3687,-0.3728,-0.3748,-0.3723,-0.3653,-0.366,-0.3597,-0.3625,-0.3474,-0.345,-0.37,-0.3698,-0.3697,-0.3695,0,0,-0.3007,-0.3229,-0.3228,-0.3238,-0.3408,-0.3442,-0.3536,-0.3591,-0.3565,-0.3668,-0.3611,-0.3714,-0.371,-0.3702,-0.3719,-0.3696,-0.3621,-0.3679,-0.3672,-0.3522,-0.3372,-0.329,-0.3256,-0.3613,-0.3611,-0.3608,-0.3273,0,-0.2968,-0.3061,-0.3211,-0.3235,-0.3256,-0.3383,-0.3433,-0.3506,-0.3557,-0.3544,-0.3602,-0.3575,-0.3703,-0.3668,-0.3684,-0.3631,-0.3568,-0.3707,-0.3381,-0.337,-0.3281,-0.3231,-0.3133,-0.2824,-0.325,-0.3246,-0.3243,0,-0.2932,-0.2998,-0.303,-0.31,-0.3118,-0.3161,-0.3186,-0.3255,-0.3323,-0.3353,-0.3388,-0.3416,-0.3436,-0.3517,-0.3436,-0.3511,-0.345,-0.3414,-0.3399,-0.3272,-0.3246,-0.2872,-0.2765,-0.2769,-0.3206,-0.3209,-0.3212,0,-0.2709,-0.2828,-0.2826,-0.2866,-0.3004,-0.301,-0.3067,-0.3159,-0.3186,-0.321,-0.3193,-0.3222,-0.3197,-0.3175,-0.3215,-0.3283,-0.3068,-0.3126,-0.2967,-0.2957,-0.2782,-0.2762,-0.2624,-0.3001,-0.3002,-0.3003,-0.3004,0,-0.2583,-0.2564,-0.2707,-0.2706,-0.2668,-0.2815,-0.2784,-0.2863,-0.2927,-0.2925,-0.3058,-0.3029,-0.3118,-0.3062,-0.3085,-0.2951,-0.2949,-0.2925,-0.2862,-0.2809,-0.2797,-0.2721,-0.2779,-0.2991,-0.2993,-0.2996,-0.2998,0,-0.2372,-0.2468,-0.2463,-0.2562,-0.2578,-0.2552,-0.2663,-0.2646,-0.2727,-0.2721,-0.2723,-0.2829,-0.2772,-0.281,-0.2723,-0.2738,-0.2576,-0.2573,-0.2491,-0.2428,-0.2313,-0.2379,-0.2125,-0.2061,-0.2299,-0.2295,-0.2291,0,-0.2294,-0.2267,-0.2339,-0.2336,-0.2391,-0.2395,-0.2411,-0.2532,-0.2551,-0.2608,-0.258,-0.2542,-0.2534,-0.2376,-0.2365,-0.2253,-0.2352,-0.209,-0.224,-0.2249,-0.2276,-0.2345,-0.2317,-0.2011,-0.2006,-0.2002,-0.1998,0,-0.2136,-0.2159,-0.2173,-0.2168,-0.2174,-0.2193,-0.223,-0.2221,-0.235,-0.2348,-0.2339,-0.2315,-0.2212,-0.2107,-0.1992,-0.1947,-0.2055,-0.1993,-0.2016,-0.204,-0.2083,-0.2011,-0.227,-0.1959,-0.1962,-0.1965,-0.1968,-0.1969,-0.2014,-0.1988,-0.2003,-0.1988,-0.2,-0.1994,-0.1955,-0.2016,-0.2015,-0.2013,-0.208,-0.2016,-0.196,-0.1809,-0.1738,-0.1618,-0.1728,-0.1618,-0.1682,-0.1739,-0.1738,-0.1897,-0.1541,-0.1543,-0.1544,-0.1545,-0.1546,0,-0.1858,-0.1846,-0.1828,-0.1809,-0.1766,-0.1829,-0.1831,-0.1782,-0.1739,-0.1785,-0.1763,-0.1717,-0.1586,-0.1554,-0.1445,-0.1364,-0.1362,-0.1347,-0.1441,-0.1418,-0.1526,-0.1584,-0.1206,-0.1206,-0.1206,-0.1206,-0.1206,-0.1206,-0.1773,-0.1698,-0.1696,-0.1579,-0.1567,-0.1467,-0.144,-0.1403,-0.1409,-0.1362,-0.1369,-0.1392,-0.1402,-0.1511,-0.139,-0.1302,-0.131,-0.1239,-0.1288,-0.143,-0.1464,-0.1495,-0.1562,-0.1186,-0.1186,-0.1125,-0.1124,-0.1124]},{"header":{"parameterUnit":"m.s-1","parameterCategory":2,"la1":30.2991,"la2":30.254,"lo1":-89.0895,"lo2":-89.0444,"dy":0.0017,"dx":0.0017,"nx":28,"ny":28,"refTime":"2025-08-19T09:00:00:Z","depth":"0","parameterNumber":3,"parameterNumberName":"V-component_of_CURRENTS"},"data":[0,0,0,0,0,0,0,0,0,0,0,0,0,0,0,0,0,0,0,0,0,0,0,0,0,0,0,0,0,0,0,0,0,0,0,0,0,0,0,0,0,0,0,0,0,0,0,0,0,0,0,0,0,0,0,0,0,0,-0.0329,-0.0327,0,-0.0155,-0.0153,-0.0152,-0.0065,-0.0065,-0.0065,-0.0065,0.01,0.0104,0.0108,0,0,0,0,0,0,0,0,0,0,0,0,0,-0.0441,-0.044,-0.0329,-0.0327,-0.0325,-0.0156,-0.0153,-0.0151,-0.0065,-0.0065,-0.0065,-0.0065,0.0098,0.0104,0.0109,0,0,0,0,0,0,0,0,0,0,0,0,0,-0.0343,-0.044,-0.0329,-0.0262,-0.0254,-0.0156,-0.0153,-0.015,-0.0065,-0.0065,-0.0065,-0.0065,0.0097,0.0103,0.011,0.015,0,0,0.013,0.0132,0,0,0,0,0,0,0,0,-0.0349,-0.0339,-0.0274,-0.0266,-0.0257,-0.0132,-0.0132,-0.005,-0.0065,-0.0137,-0.0065,-0.0065,0.0021,0.0034,0.0067,0.0158,0.0165,0.013,0.0134,0.0137,0.0139,0,0,0,0,0,0,0,-0.0356,-0.0345,-0.026,-0.0272,-0.0261,-0.019,-0.0177,-0.0115,-0.006,-0.0131,-0.0124,-0.0105,0.0026,0.006,0.0071,0.0167,0.013,0.0136,0.014,0.0143,0.0241,0.024,0,0,0,0,0,0,-0.0385,-0.0352,-0.0266,-0.0255,-0.0304,-0.0189,-0.0174,-0.0172,-0.006,-0.0043,-0.0105,-0.0101,0.0049,0.0064,0.0078,0.0085,0.0137,0.0143,0.0147,0.0243,0.0241,0.024,0,0,0,0,0,0,-0.0388,-0.038,-0.0273,-0.0298,-0.028,-0.0188,-0.0185,-0.0169,-0.0135,-0.0041,-0.0024,-0.0089,0.005,0.0068,0.0116,0.0094,0.0146,0.0152,0.0244,0.0242,0.024,0.013,0,0,0,0,0,0,-0.0393,-0.0382,-0.0395,-0.0301,-0.028,-0.0224,-0.0185,-0.0165,-0.0123,-0.0117,-0.0021,-0.0005,0.0051,0.0105,0.0122,0.0104,0.0157,0.0246,0.0243,0.0241,0.0135,0.0125,0.0115,0,0,0,0,0,-0.0397,-0.0417,-0.0398,-0.0387,-0.03,-0.0224,-0.0206,-0.0139,-0.0123,-0.011,-0.0057,-0.0009,0.0101,0.011,0.013,0.0113,0.0247,0.0244,0.0241,0.014,0.0127,0.0116,0,0,0,0,0,0,-0.0469,-0.0407,-0.0384,-0.0384,-0.0314,-0.021,-0.0195,-0.0147,-0.0091,-0.0094,-0.001,0.0009,0.0038,0.009,0.0098,0.0131,0.0177,0.0177,0.0093,0.0081,0.0071,0.0037,0.0163,0,0,0,0,0,-0.0494,-0.0499,-0.041,-0.0412,-0.0383,-0.0291,-0.0255,-0.0207,-0.0141,-0.0116,-0.0046,0.0008,0.0043,0.0072,0.0122,0.0152,0.0201,0.0148,0.0138,0.0129,0.0113,0.0139,0.0129,0.023,0.023,0.023,0,0,-0.0527,-0.049,-0.0494,-0.0428,-0.0373,-0.0338,-0.027,-0.0222,-0.0202,-0.0108,-0.007,-0.0018,0.0042,0.0067,0.0084,0.0108,0.0135,0.0126,0.0118,0.0106,0.0135,0.0125,0.0116,0.0228,0.0228,0.0229,0,0,-0.058,-0.0557,-0.057,-0.0519,-0.0442,-0.0381,-0.0372,-0.0271,-0.0239,-0.0187,-0.0138,-0.0107,-0.0016,0.0006,0.0029,-0.0007,0.0078,0.0013,-0.0058,-0.0033,-0.0041,-0.0048,0.0039,0.004,0.001,0.001,0.001,0,-0.0619,-0.0622,-0.0559,-0.0544,-0.0517,-0.0409,-0.0404,-0.035,-0.0248,-0.0236,-0.0194,-0.011,-0.0055,-0.0056,-0.0072,-0.0031,0.0021,-0.0016,-0.0047,-0.0053,-0.0058,0.0032,0.0036,0.0004,0.0005,0.0005,0.0006,0,-0.0668,-0.0667,-0.0666,-0.0624,-0.0586,-0.0561,-0.0479,-0.0442,-0.0387,-0.033,-0.0304,-0.0228,-0.0182,-0.0166,-0.0125,-0.0144,-0.0079,-0.0064,-0.0018,-0.0075,0.0025,0.003,-0.0004,-0.0002,-0.0,0.0001,0,0,-0.0751,-0.0715,-0.0711,-0.0704,-0.0629,-0.0593,-0.0583,-0.0533,-0.0525,-0.0441,-0.0433,-0.0386,-0.0336,-0.031,-0.0256,-0.0237,-0.0211,-0.0172,-0.0167,-0.0089,-0.0107,-0.0036,-0.0021,-0.0201,-0.0202,-0.0202,-0.0009,0,-0.0801,-0.081,-0.078,-0.0779,-0.0767,-0.0698,-0.0692,-0.064,-0.058,-0.0536,-0.0483,-0.044,-0.0393,-0.0366,-0.0348,-0.0238,-0.0208,-0.0262,-0.0062,-0.0055,0.0011,-0.0019,0.0034,0.021,-0.0003,-0.0002,-0.0001,0,-0.0842,-0.0843,-0.0866,-0.0849,-0.0841,-0.083,-0.08,-0.0777,-0.0712,-0.0671,-0.0633,-0.0556,-0.0508,-0.0461,-0.0327,-0.0357,-0.0255,-0.0172,-0.0162,-0.0062,0.0023,0.0225,0.0229,0.0394,0.0008,0.0007,0.0007,0,-0.0894,-0.0893,-0.092,-0.091,-0.0878,-0.089,-0.087,-0.082,-0.0803,-0.0744,-0.0706,-0.0643,-0.0567,-0.0476,-0.029,-0.0306,-0.0119,-0.0112,0.0047,0.0058,0.0157,0.0176,0.0335,-0.0048,-0.0048,-0.0049,-0.0049,0,-0.0937,-0.095,-0.0945,-0.0949,-0.0982,-0.0941,-0.0956,-0.0928,-0.0882,-0.0855,-0.0772,-0.0716,-0.0571,-0.0432,-0.0303,-0.0086,-0.012,0.0034,0.0094,0.0126,0.0138,0.033,0.0388,-0.0041,-0.0043,-0.0044,-0.0046,0,-0.0972,-0.097,-0.0993,-0.0996,-0.0999,-0.1015,-0.1002,-0.1005,-0.0949,-0.0907,-0.0886,-0.0744,-0.0556,-0.0384,-0.018,-0.0065,0.0226,0.0185,0.0246,0.0308,0.0578,0.0627,0.0848,0.0952,0.0385,0.0388,0.039,0,-0.0991,-0.1006,-0.1031,-0.1053,-0.1057,-0.1071,-0.1083,-0.1045,-0.1032,-0.0913,-0.0889,-0.07,-0.055,-0.02,0.0023,0.028,0.0376,0.0473,0.0416,0.06,0.0699,0.073,0.0803,0.054,0.0544,0.0546,0.0548,0,-0.1023,-0.1032,-0.1056,-0.1106,-0.113,-0.1154,-0.1155,-0.1152,-0.1086,-0.1013,-0.0872,-0.0738,-0.0389,-0.007,0.026,0.0406,0.0606,0.0535,0.0695,0.0801,0.0874,0.1003,0.0453,0.0572,0.057,0.0568,0.0567,0.0566,-0.1045,-0.1077,-0.1109,-0.1154,-0.119,-0.1217,-0.1217,-0.1186,-0.1133,-0.0985,-0.0859,-0.0581,-0.0155,0.032,0.0494,0.0882,0.0821,0.0986,0.1031,0.1047,0.1129,0.0651,0.084,0.084,0.0839,0.0838,0.0838,0,-0.106,-0.1097,-0.1151,-0.1201,-0.1244,-0.1248,-0.1248,-0.1203,-0.1113,-0.0931,-0.0748,-0.0197,0.024,0.0637,0.1142,0.1359,0.1395,0.1468,0.152,0.1569,0.1138,0.1123,0.1416,0.1416,0.1415,0.1415,0.1415,0.1415,-0.1067,-0.1116,-0.1149,-0.1222,-0.1259,-0.127,-0.1258,-0.116,-0.1011,-0.0659,-0.0312,-0.0038,0.0526,0.1277,0.1755,0.1805,0.199,0.1983,0.2074,0.1768,0.1726,0.1686,0.1687,0.2093,0.2093,0.25,0.2504,0.2507]}],[{"header":{"parameterUnit":"m.s-1","parameterCategory":2,"la1":30.2991,"la2":30.254,"lo1":-89.0895,"lo2":-89.0444,"dy":0.0017,"dx":0.0017,"nx":28,"ny":28,"refTime":"2025-08-19T09:00:00:Z","depth":"2","parameterNumber":2,"parameterNumberName":"U-component_of_CURRENTS"},"data":[0,0,0,0,0,0,0,0,0,0,0,0,0,0,0,0,0,0,0,0,0,0,0,0,0,0,0,0,0,0,0,0,0,0,0,0,0,0,0,0,0,0,0,0,0,0,0,0,0,0,0,0,0,0,0,0,0,0,-0.2491,-0.2492,0,-0.2577,-0.2578,-0.2578,-0.2565,-0.2565,-0.2564,-0.2563,-0.2604,-0.2606,-0.2607,0,0,0,0,0,0,0,0,0,0,0,0,0,-0.2382,-0.2383,-0.249,-0.2492,-0.2494,-0.2577,-0.2578,-0.2578,-0.2566,-0.2565,-0.2564,-0.2563,-0.2603,-0.2605,-0.2607,0,0,0,0,0,0,0,0,0,0,0,0,0,-0.2437,-0.2383,-0.249,-0.2504,-0.2507,-0.2577,-0.2578,-0.2578,-0.2566,-0.2565,-0.2564,-0.2563,-0.2603,-0.2605,-0.2608,-0.2643,0,0,-0.2615,-0.2617,0,0,0,0,0,0,0,0,-0.2433,-0.2439,-0.25,-0.2504,-0.2507,-0.2567,-0.2555,-0.2601,-0.2566,-0.2534,-0.2563,-0.2562,-0.2594,-0.2597,-0.2604,-0.2645,-0.2647,-0.2616,-0.2617,-0.2618,-0.2619,0,0,0,0,0,0,0,-0.2429,-0.2436,-0.2516,-0.2503,-0.2507,-0.253,-0.2535,-0.2563,-0.2561,-0.2537,-0.2539,-0.2562,-0.2594,-0.2601,-0.2605,-0.2648,-0.2616,-0.2618,-0.2619,-0.262,-0.2706,-0.2707,0,0,0,0,0,0,-0.2434,-0.2432,-0.2514,-0.252,-0.2477,-0.2533,-0.2539,-0.2542,-0.2562,-0.2567,-0.2563,-0.2561,-0.2598,-0.2602,-0.2606,-0.2591,-0.2618,-0.2621,-0.2622,-0.2705,-0.2706,-0.2707,0,0,0,0,0,0,-0.2431,-0.2439,-0.251,-0.2486,-0.2498,-0.2537,-0.254,-0.2544,-0.2548,-0.2584,-0.2586,-0.2563,-0.2597,-0.2603,-0.2597,-0.2595,-0.2622,-0.2624,-0.2704,-0.2706,-0.2707,-0.2599,0,0,0,0,0,0,-0.2427,-0.2437,-0.2435,-0.2486,-0.25,-0.2534,-0.2542,-0.2547,-0.2568,-0.2567,-0.2585,-0.2588,-0.2597,-0.2593,-0.26,-0.2599,-0.2626,-0.2704,-0.2705,-0.2706,-0.2601,-0.2596,-0.2592,0,0,0,0,0,-0.2422,-0.243,-0.2434,-0.2445,-0.2497,-0.2534,-0.2541,-0.2562,-0.2569,-0.2561,-0.2561,-0.2587,-0.2608,-0.2594,-0.2602,-0.2602,-0.2703,-0.2705,-0.2706,-0.2604,-0.2597,-0.2592,0,0,0,0,0,0,-0.2393,-0.2432,-0.2437,-0.2458,-0.2485,-0.2535,-0.2552,-0.2563,-0.2561,-0.2572,-0.2577,-0.2579,-0.2586,-0.2615,-0.2599,-0.2638,-0.2669,-0.2673,-0.2589,-0.2583,-0.2579,-0.2582,-0.2628,0,0,0,0,0,-0.2386,-0.2391,-0.2435,-0.2451,-0.247,-0.2508,-0.2528,-0.2551,-0.2568,-0.2568,-0.2573,-0.2595,-0.2605,-0.2604,-0.2633,-0.2638,-0.266,-0.2655,-0.265,-0.2645,-0.2658,-0.2662,-0.2657,-0.2713,-0.2713,-0.2713,0,0,-0.2387,-0.2407,-0.2414,-0.2444,-0.2475,-0.2493,-0.2514,-0.2561,-0.2571,-0.2576,-0.2576,-0.2583,-0.2607,-0.2607,-0.2615,-0.2622,-0.264,-0.2647,-0.2642,-0.2658,-0.2663,-0.2657,-0.2652,-0.2714,-0.2714,-0.2713,0,0,-0.2387,-0.2404,-0.2404,-0.2426,-0.2478,-0.2501,-0.251,-0.2556,-0.2567,-0.2586,-0.258,-0.2558,-0.2609,-0.2579,-0.2583,-0.2574,-0.2621,-0.2615,-0.2575,-0.2577,-0.2572,-0.2567,-0.2567,-0.2564,-0.2601,-0.26,-0.26,0,-0.2384,-0.2388,-0.2413,-0.2422,-0.2447,-0.2497,-0.2512,-0.2535,-0.2566,-0.2571,-0.2587,-0.2602,-0.2593,-0.2559,-0.254,-0.2557,-0.2582,-0.258,-0.2566,-0.2562,-0.2559,-0.2561,-0.2558,-0.2596,-0.2596,-0.2597,-0.2597,0,-0.238,-0.2388,-0.2401,-0.2412,-0.2433,-0.2471,-0.251,-0.2526,-0.2561,-0.2578,-0.2585,-0.2564,-0.2565,-0.2555,-0.2538,-0.251,-0.2541,-0.2559,-0.2566,-0.2546,-0.255,-0.2549,-0.2588,-0.259,-0.2592,-0.2593,0,0,-0.2358,-0.2389,-0.2391,-0.2401,-0.2442,-0.2467,-0.2485,-0.251,-0.2532,-0.2553,-0.2563,-0.2524,-0.2523,-0.2526,-0.2497,-0.2473,-0.2429,-0.2502,-0.2504,-0.2476,-0.2447,-0.233,-0.2318,-0.2452,-0.2452,-0.2452,-0.2449,0,-0.2347,-0.2358,-0.2375,-0.2393,-0.2408,-0.2452,-0.2465,-0.2496,-0.2533,-0.2553,-0.2541,-0.255,-0.2513,-0.2507,-0.2472,-0.2464,-0.2428,-0.2429,-0.2496,-0.2498,-0.2374,-0.2313,-0.2153,-0.2125,-0.2448,-0.2448,-0.2448,0,-0.2322,-0.2338,-0.2348,-0.2393,-0.2406,-0.2417,-0.2461,-0.2485,-0.2518,-0.2553,-0.2549,-0.2567,-0.2512,-0.251,-0.2464,-0.2479,-0.2452,-0.2439,-0.244,-0.2373,-0.2378,-0.2207,-0.2112,-0.2447,-0.2447,-0.2447,-0.2447,0,-0.2279,-0.2318,-0.2325,-0.234,-0.2391,-0.2403,-0.2434,-0.2473,-0.2494,-0.2543,-0.2565,-0.2556,-0.2542,-0.2532,-0.2471,-0.2491,-0.2443,-0.247,-0.2336,-0.2329,-0.2226,-0.2208,-0.2436,-0.2436,-0.2436,-0.2436,-0.2436,0,-0.2245,-0.2251,-0.231,-0.2313,-0.2332,-0.2387,-0.2406,-0.2444,-0.2494,-0.2495,-0.2548,-0.2533,-0.2551,-0.2521,-0.2492,-0.2389,-0.2453,-0.2316,-0.231,-0.2182,-0.2162,-0.2484,-0.2489,-0.2436,-0.2436,-0.2436,-0.2436,0,-0.2165,-0.2209,-0.2219,-0.2283,-0.23,-0.231,-0.2365,-0.2381,-0.2451,-0.2456,-0.2469,-0.251,-0.2472,-0.2463,-0.2434,-0.2378,-0.2324,-0.2267,-0.2106,-0.2078,-0.2218,-0.2219,-0.2153,-0.2149,-0.2145,-0.2142,-0.2139,0,-0.2114,-0.2113,-0.217,-0.2171,-0.2189,-0.2221,-0.2233,-0.2327,-0.234,-0.2407,-0.2392,-0.2394,-0.2335,-0.2262,-0.2185,-0.2116,-0.2197,-0.1928,-0.1909,-0.2182,-0.2184,-0.2191,-0.2197,-0.174,-0.1734,-0.1729,-0.1725,0,-0.2009,-0.2034,-0.2043,-0.2051,-0.2063,-0.2081,-0.2115,-0.2125,-0.2219,-0.2234,-0.2227,-0.2202,-0.2127,-0.1973,-0.1883,-0.1825,-0.1936,-0.1828,-0.2152,-0.1822,-0.1788,-0.1792,-0.1812,-0.1684,-0.1688,-0.1691,-0.1693,-0.1695,-0.1912,-0.1894,-0.1911,-0.1904,-0.1924,-0.1922,-0.189,-0.194,-0.1945,-0.1938,-0.2004,-0.1913,-0.1891,-0.1662,-0.1562,-0.1493,-0.1633,-0.1584,-0.1601,-0.1622,-0.156,-0.1519,-0.1355,-0.1357,-0.1359,-0.1361,-0.1362,0,-0.1778,-0.1772,-0.1761,-0.1752,-0.1719,-0.178,-0.1784,-0.1732,-0.1684,-0.1706,-0.1676,-0.1492,-0.1376,-0.136,-0.1183,-0.1142,-0.1158,-0.1102,-0.114,-0.118,-0.1216,-0.1137,-0.0818,-0.0816,-0.0815,-0.0814,0,0,-0.1704,-0.1644,-0.1643,-0.1546,-0.1538,-0.1449,-0.1422,-0.1375,-0.1357,-0.1277,-0.1233,-0.1316,-0.1325,-0.1086,-0.1018,-0.0891,-0.1029,-0.084,-0.1276,-0.1361,-0.1396,-0.1489,-0.141,0,0,0,0,0]},{"header":{"parameterUnit":"m.s-1","parameterCategory":2,"la1":30.2991,"la2":30.254,"lo1":-89.0895,"lo2":-89.0444,"dy":0.0017,"dx":0.0017,"nx":28,"ny":28,"refTime":"2025-08-19T09:00:00:Z","depth":"2","parameterNumber":3,"parameterNumberName":"V-component_of_CURRENTS"},"data":[0,0,0,0,0,0,0,0,0,0,0,0,0,0,0,0,0,0,0,0,0,0,0,0,0,0,0,0,0,0,0,0,0,0,0,0,0,0,0,0,0,0,0,0,0,0,0,0,0,0,0,0,0,0,0,0,0,0,-0.0342,-0.0341,0,-0.0242,-0.0241,-0.024,-0.0173,-0.0172,-0.0172,-0.0171,0.0034,0.0039,0.0044,0,0,0,0,0,0,0,0,0,0,0,0,0,-0.0376,-0.0376,-0.0342,-0.0341,-0.0339,-0.0242,-0.0241,-0.0239,-0.0173,-0.0172,-0.0172,-0.0171,0.0032,0.0038,0.0044,0,0,0,0,0,0,0,0,0,0,0,0,0,-0.0327,-0.0376,-0.0342,-0.0295,-0.029,-0.0243,-0.0241,-0.0239,-0.0173,-0.0172,-0.0171,-0.0171,0.003,0.0037,0.0045,0.0079,0,0,0.0068,0.0072,0,0,0,0,0,0,0,0,-0.033,-0.0326,-0.0303,-0.0298,-0.0292,-0.022,-0.0178,-0.0127,-0.0173,-0.0216,-0.0171,-0.0171,-0.0042,-0.0029,-0.0012,0.0089,0.0098,0.0069,0.0074,0.0077,0.0079,0,0,0,0,0,0,0,-0.0333,-0.0329,-0.0302,-0.0302,-0.0295,-0.0245,-0.0238,-0.0168,-0.0132,-0.0213,-0.0208,-0.0198,-0.0038,-0.0019,-0.0006,0.0101,0.0069,0.0075,0.008,0.0083,0.0301,0.0302,0,0,0,0,0,0,-0.0353,-0.0333,-0.0305,-0.0299,-0.031,-0.0245,-0.0237,-0.0243,-0.0134,-0.0118,-0.0198,-0.0195,-0.0033,-0.0015,0.0001,0.0052,0.0077,0.0084,0.0088,0.03,0.0302,0.0303,0,0,0,0,0,0,-0.0354,-0.0352,-0.0309,-0.0313,-0.0304,-0.0246,-0.0252,-0.0241,-0.0226,-0.0125,-0.0106,-0.0195,-0.0032,-0.0009,0.0044,0.0061,0.0087,0.0094,0.0299,0.03,0.0302,0.0152,0,0,0,0,0,0,-0.0356,-0.0354,-0.0363,-0.0315,-0.0304,-0.0289,-0.0252,-0.024,-0.0221,-0.0216,-0.0116,-0.0096,-0.0029,0.0032,0.0051,0.0072,0.01,0.0297,0.0299,0.0302,0.0155,0.0148,0.0142,0,0,0,0,0,-0.0358,-0.0377,-0.0365,-0.0361,-0.0321,-0.0289,-0.028,-0.0235,-0.0222,-0.0219,-0.0164,-0.0099,0.0063,0.0037,0.006,0.0083,0.0296,0.0299,0.0301,0.0158,0.015,0.0142,0,0,0,0,0,0,-0.0399,-0.0371,-0.0356,-0.0367,-0.0334,-0.0278,-0.0272,-0.0246,-0.0201,-0.0195,-0.0108,-0.0085,-0.0019,0.0052,0.0022,0.016,0.0201,0.0208,0.0085,0.0078,0.0071,0.0064,0.0106,0,0,0,0,0,-0.0415,-0.0422,-0.0381,-0.039,-0.0378,-0.0329,-0.0312,-0.0282,-0.0236,-0.0217,-0.0145,-0.006,0.0013,0.0053,0.0137,0.019,0.0243,0.0234,0.0227,0.0221,0.0235,0.0295,0.0293,0.0312,0.0312,0.0312,0,0,-0.0436,-0.0419,-0.0424,-0.0399,-0.0371,-0.0354,-0.0317,-0.0298,-0.0274,-0.0199,-0.0147,-0.0082,0.0023,0.0087,0.0126,0.0143,0.024,0.0224,0.0217,0.0236,0.0298,0.0295,0.0293,0.0314,0.0313,0.0313,0,0,-0.0469,-0.0466,-0.0475,-0.0452,-0.0414,-0.0381,-0.0382,-0.0327,-0.0294,-0.0246,-0.0181,-0.013,-0.0003,0.0057,0.0107,0.0119,0.0203,0.0171,0.0128,0.0183,0.0181,0.018,0.021,0.0213,0.0166,0.0165,0.0165,0,-0.0493,-0.0498,-0.0472,-0.0465,-0.0448,-0.04,-0.0395,-0.0355,-0.0287,-0.0257,-0.0238,-0.0081,-0.0015,0.0058,0.0059,0.0101,0.0145,0.0132,0.0169,0.0169,0.0171,0.0202,0.0207,0.0158,0.0159,0.016,0.0161,0,-0.0522,-0.0523,-0.0527,-0.0504,-0.0483,-0.0474,-0.0418,-0.0388,-0.0345,-0.0294,-0.0214,-0.014,-0.0046,-0.0015,0.0022,0.0078,0.0107,0.0144,0.0169,0.0158,0.0194,0.0201,0.0148,0.0151,0.0153,0.0155,0,0,-0.0588,-0.0554,-0.0557,-0.055,-0.0503,-0.0492,-0.0454,-0.0402,-0.038,-0.0301,-0.0261,-0.0161,-0.0121,-0.006,-0.0005,0.0035,0.0047,0.0086,0.0092,0.0081,0.0158,0.0199,0.0212,0.0087,0.0089,0.009,0.0164,0,-0.0616,-0.0621,-0.0588,-0.0588,-0.0586,-0.0529,-0.0501,-0.0447,-0.0388,-0.0335,-0.0249,-0.0186,-0.0134,-0.011,-0.0059,0.003,0.0069,0.0024,0.0204,0.0209,0.0218,0.0224,0.021,0.0279,0.0172,0.0173,0.0174,0,-0.0653,-0.065,-0.0657,-0.063,-0.0624,-0.0614,-0.0568,-0.0533,-0.0444,-0.0397,-0.0319,-0.0243,-0.017,-0.0131,0.0013,-0.0016,0.0067,0.013,0.0135,0.0241,0.0266,0.0287,0.0298,0.0188,0.0187,0.0186,0.0185,0,-0.0715,-0.0699,-0.0709,-0.07,-0.066,-0.0652,-0.0629,-0.0557,-0.0528,-0.0442,-0.0413,-0.0295,-0.0243,-0.0121,0.002,0.0017,0.0181,0.0191,0.0308,0.031,0.0373,0.038,0.0302,0.0302,0.0302,0.0302,0.0301,0,-0.0758,-0.0766,-0.0744,-0.0752,-0.0766,-0.0717,-0.0712,-0.0667,-0.0603,-0.0567,-0.0457,-0.0399,-0.0234,-0.0112,0.001,0.0188,0.018,0.0312,0.0343,0.0319,0.032,0.0315,0.0315,0.0304,0.0304,0.0303,0.0303,0,-0.0813,-0.0798,-0.0813,-0.0795,-0.0795,-0.0808,-0.078,-0.0769,-0.0704,-0.0655,-0.0633,-0.0477,-0.0313,-0.0141,0.0058,0.0173,0.0331,0.04,0.035,0.0375,0.0417,0.0409,0.052,0.0522,0.0524,0.0526,0.0527,0,-0.0835,-0.0851,-0.0863,-0.0881,-0.0875,-0.0884,-0.0886,-0.083,-0.0808,-0.069,-0.0666,-0.0501,-0.0352,-0.0051,0.0171,0.0395,0.0396,0.051,0.0509,0.0425,0.0445,0.0434,0.0424,0.0514,0.0515,0.0516,0.0517,0,-0.0875,-0.0883,-0.0898,-0.0944,-0.0963,-0.0976,-0.0969,-0.0967,-0.0884,-0.0816,-0.0684,-0.0559,-0.0258,0.0009,0.0299,0.0429,0.0469,0.0538,0.0485,0.0464,0.0427,0.0443,0.0433,0.0525,0.0524,0.0524,0.0523,0.0523,-0.0901,-0.093,-0.0956,-0.0996,-0.1026,-0.1045,-0.1043,-0.1005,-0.0952,-0.0812,-0.0696,-0.0458,-0.0231,0.0213,0.0398,0.0576,0.0572,0.0621,0.0615,0.0609,0.0598,0.0568,0.0688,0.0688,0.0688,0.0688,0.0688,0,-0.092,-0.0954,-0.1001,-0.1043,-0.108,-0.1082,-0.1074,-0.1032,-0.0947,-0.0785,-0.0618,-0.0312,-0.0011,0.0225,0.052,0.0679,0.0652,0.0698,0.063,0.0622,0.0615,0.0601,0.0693,0.0693,0.0694,0.0694,0,0,-0.093,-0.0976,-0.1003,-0.1068,-0.1101,-0.1112,-0.1099,-0.1009,-0.0879,-0.0692,-0.0494,-0.0259,0.0029,0.0233,0.0423,0.0571,0.055,0.0581,0.0565,0.0455,0.0445,0.0565,0.0535,0,0,0,0,0]}],[{"header":{"parameterUnit":"m.s-1","parameterCategory":2,"la1":30.2991,"la2":30.254,"lo1":-89.0895,"lo2":-89.0444,"dy":0.0017,"dx":0.0017,"nx":28,"ny":28,"refTime":"2025-08-19T09:00:00:Z","depth":"4","parameterNumber":2,"parameterNumberName":"U-component_of_CURRENTS"},"data":[0,0,0,0,0,0,0,0,0,0,0,0,0,0,0,0,0,0,0,0,0,0,0,0,0,0,0,0,0,0,0,0,0,0,0,0,0,0,0,0,0,0,0,0,0,0,0,0,0,0,0,0,0,0,0,0,0,0,-0.1555,-0.1555,0,-0.1544,-0.1544,-0.1543,-0.155,-0.155,-0.1551,-0.1552,-0.1603,-0.1604,-0.1605,0,0,0,0,0,0,0,0,0,0,0,0,0,-0.1573,-0.1573,-0.1555,-0.1555,-0.1555,-0.1544,-0.1544,-0.1543,-0.1549,-0.155,-0.1551,-0.1552,-0.1603,-0.1604,-0.1605,0,0,0,0,0,0,0,0,0,0,0,0,0,-0.156,-0.1572,-0.1555,-0.156,-0.1561,-0.1544,-0.1544,-0.1543,-0.1549,-0.155,-0.1551,-0.1552,-0.1603,-0.1604,-0.1605,-0.159,0,0,-0.1608,-0.1609,0,0,0,0,0,0,0,0,-0.1561,-0.1559,-0.1559,-0.156,-0.1561,-0.1553,-0.1569,-0.1563,-0.1549,-0.1549,-0.1552,-0.1553,-0.1595,-0.1596,-0.1585,-0.1592,-0.1594,-0.1608,-0.1609,-0.1609,-0.161,0,0,0,0,0,0,0,-0.1562,-0.1559,-0.1546,-0.156,-0.1561,-0.1562,-0.156,-0.1568,-0.1564,-0.1549,-0.1551,-0.1556,-0.1595,-0.1583,-0.1586,-0.1595,-0.1608,-0.1609,-0.161,-0.161,-0.1664,-0.1665,0,0,0,0,0,0,-0.1571,-0.156,-0.1546,-0.1546,-0.1569,-0.1561,-0.1559,-0.1551,-0.1562,-0.1566,-0.1555,-0.1557,-0.1581,-0.1585,-0.1588,-0.1642,-0.1609,-0.161,-0.1611,-0.1664,-0.1665,-0.1665,0,0,0,0,0,0,-0.1571,-0.1569,-0.1547,-0.1557,-0.1555,-0.156,-0.155,-0.155,-0.1571,-0.1567,-0.1571,-0.158,-0.1582,-0.1587,-0.162,-0.1642,-0.1611,-0.1612,-0.1663,-0.1664,-0.1665,-0.1705,0,0,0,0,0,0,-0.1571,-0.1569,-0.1575,-0.1557,-0.1555,-0.1555,-0.155,-0.1549,-0.1573,-0.1575,-0.1589,-0.1593,-0.1583,-0.1618,-0.1621,-0.1643,-0.1613,-0.1662,-0.1663,-0.1665,-0.1703,-0.1708,-0.1712,0,0,0,0,0,-0.1572,-0.1571,-0.1575,-0.1574,-0.156,-0.1557,-0.1555,-0.1559,-0.1573,-0.1581,-0.1596,-0.1594,-0.163,-0.162,-0.1623,-0.1646,-0.1661,-0.1663,-0.1665,-0.1701,-0.1707,-0.1712,0,0,0,0,0,0,-0.1586,-0.1571,-0.1575,-0.1572,-0.1576,-0.156,-0.1573,-0.1578,-0.1592,-0.1608,-0.1605,-0.1609,-0.1643,-0.1641,-0.163,-0.1665,-0.1645,-0.1647,-0.1671,-0.1677,-0.1681,-0.1701,-0.1613,0,0,0,0,0,-0.1591,-0.1586,-0.158,-0.1582,-0.1589,-0.1589,-0.1594,-0.1598,-0.1605,-0.1614,-0.1624,-0.1637,-0.1645,-0.1661,-0.1664,-0.1689,-0.1691,-0.1705,-0.1709,-0.1713,-0.1731,-0.1749,-0.1757,-0.1671,-0.1671,-0.1671,0,0,-0.1601,-0.1592,-0.1592,-0.1586,-0.1591,-0.1601,-0.1594,-0.1612,-0.1629,-0.1618,-0.1655,-0.1655,-0.1655,-0.1676,-0.1691,-0.1684,-0.1736,-0.1715,-0.1719,-0.1734,-0.1752,-0.176,-0.1767,-0.1673,-0.1672,-0.1672,0,0,-0.1609,-0.1611,-0.161,-0.1617,-0.1631,-0.163,-0.1645,-0.1649,-0.1665,-0.169,-0.1687,-0.1708,-0.1721,-0.1724,-0.1726,-0.1761,-0.1756,-0.1762,-0.1807,-0.1824,-0.1831,-0.1838,-0.1842,-0.1849,-0.1768,-0.1768,-0.1768,0,-0.1628,-0.162,-0.1614,-0.162,-0.164,-0.165,-0.167,-0.1678,-0.1695,-0.1718,-0.1713,-0.1745,-0.1743,-0.1774,-0.1781,-0.1773,-0.1779,-0.1785,-0.183,-0.1837,-0.1843,-0.1846,-0.1853,-0.1771,-0.177,-0.177,-0.177,0,-0.1621,-0.1639,-0.1647,-0.1656,-0.1673,-0.1696,-0.1712,-0.1739,-0.1762,-0.1771,-0.1816,-0.1809,-0.183,-0.1828,-0.1815,-0.1859,-0.1846,-0.183,-0.1818,-0.1854,-0.1855,-0.1861,-0.1774,-0.1773,-0.1772,-0.1772,0,0,-0.1611,-0.1638,-0.1647,-0.1674,-0.1702,-0.1716,-0.1757,-0.1794,-0.1836,-0.185,-0.1901,-0.1905,-0.191,-0.1914,-0.1904,-0.1921,-0.1954,-0.19,-0.19,-0.1907,-0.1991,-0.182,-0.181,-0.1949,-0.195,-0.1952,-0.1971,0,-0.162,-0.1647,-0.1657,-0.1711,-0.1735,-0.177,-0.1808,-0.1847,-0.1879,-0.1926,-0.1938,-0.1972,-0.194,-0.1957,-0.197,-0.196,-0.1976,-0.1951,-0.1954,-0.1954,-0.1799,-0.1813,-0.1957,-0.1976,-0.1977,-0.1978,-0.1979,0,-0.1608,-0.1634,-0.1681,-0.1754,-0.1771,-0.1806,-0.1888,-0.1921,-0.1982,-0.2009,-0.2047,-0.2053,-0.2082,-0.2048,-0.2062,-0.205,-0.2031,-0.2019,-0.2019,-0.1853,-0.1795,-0.1934,-0.199,-0.1989,-0.1989,-0.1988,-0.1987,0,-0.1592,-0.1656,-0.1702,-0.1724,-0.1795,-0.1842,-0.1888,-0.1954,-0.1987,-0.2067,-0.2093,-0.2135,-0.2145,-0.2147,-0.2096,-0.2096,-0.2099,-0.2091,-0.1924,-0.1912,-0.2046,-0.2038,-0.2111,-0.2111,-0.2111,-0.2111,-0.2111,0,-0.1577,-0.162,-0.1708,-0.173,-0.1798,-0.1857,-0.1928,-0.1978,-0.2051,-0.2073,-0.2134,-0.2136,-0.2171,-0.2159,-0.213,-0.2023,-0.212,-0.1935,-0.1905,-0.2059,-0.2054,-0.2049,-0.2042,-0.2112,-0.2112,-0.2112,-0.2111,0,-0.1525,-0.1587,-0.1645,-0.1748,-0.1784,-0.183,-0.1924,-0.1959,-0.2048,-0.2079,-0.2102,-0.215,-0.212,-0.2123,-0.2112,-0.2031,-0.1975,-0.1916,-0.2074,-0.2053,-0.178,-0.1775,-0.1755,-0.1749,-0.1744,-0.174,-0.1736,0,-0.1484,-0.1513,-0.1635,-0.1664,-0.171,-0.179,-0.1827,-0.1935,-0.1956,-0.2043,-0.2032,-0.2056,-0.2057,-0.1909,-0.1935,-0.1875,-0.1841,-0.1818,-0.1809,-0.177,-0.1744,-0.1747,-0.1748,-0.1728,-0.1727,-0.1726,-0.1724,0,-0.1404,-0.1468,-0.1511,-0.1578,-0.1634,-0.1681,-0.1745,-0.1753,-0.185,-0.1952,-0.1898,-0.1867,-0.1827,-0.1792,-0.1745,-0.1703,-0.1841,-0.1766,-0.1776,-0.1768,-0.1738,-0.1718,-0.1725,-0.1707,-0.171,-0.1711,-0.1712,0,-0.1337,-0.135,-0.142,-0.146,-0.1529,-0.1538,-0.1596,-0.1605,-0.1644,-0.1746,-0.1715,-0.1738,-0.1796,-0.17,-0.1655,-0.1596,-0.1579,-0.1536,-0.1558,-0.1578,-0.1504,-0.1439,-0.1291,0,0,0,0,0,-0.1257,-0.1255,-0.1287,-0.1328,-0.1391,-0.1427,-0.1515,-0.1572,-0.1675,-0.1585,-0.1647,-0.1595,-0.1524,-0.1541,-0.144,-0.1575,-0.159,-0.1452,-0.1555,-0.1611,-0.1631,-0.1556,0,0,0,0,0,0,-0.1201,-0.123,-0.1242,-0.1207,-0.1204,-0.1254,-0.1304,-0.1377,-0.134,-0.1446,-0.1412,-0.1489,-0.1442,-0.1544,-0.1401,-0.1405,-0.1435,-0.1477,-0.1472,-0.16,-0.1618,-0.1634,-0.1564,0,0,0,0,0]},{"header":{"parameterUnit":"m.s-1","parameterCategory":2,"la1":30.2991,"la2":30.254,"lo1":-89.0895,"lo2":-89.0444,"dy":0.0017,"dx":0.0017,"nx":28,"ny":28,"refTime":"2025-08-19T09:00:00:Z","depth":"4","parameterNumber":3,"parameterNumberName":"V-component_of_CURRENTS"},"data":[0,0,0,0,0,0,0,0,0,0,0,0,0,0,0,0,0,0,0,0,0,0,0,0,0,0,0,0,0,0,0,0,0,0,0,0,0,0,0,0,0,0,0,0,0,0,0,0,0,0,0,0,0,0,0,0,0,0,-0.0299,-0.0299,0,-0.0279,-0.0279,-0.0279,-0.0256,-0.0255,-0.0254,-0.0254,-0.019,-0.0189,-0.0188,0,0,0,0,0,0,0,0,0,0,0,0,0,-0.0285,-0.0286,-0.0299,-0.0299,-0.0299,-0.0279,-0.0279,-0.0279,-0.0256,-0.0255,-0.0254,-0.0254,-0.019,-0.0189,-0.0188,0,0,0,0,0,0,0,0,0,0,0,0,0,-0.0283,-0.0286,-0.0299,-0.0283,-0.0281,-0.0279,-0.0279,-0.0279,-0.0256,-0.0255,-0.0254,-0.0253,-0.0191,-0.0189,-0.0187,-0.0192,0,0,-0.0182,-0.0181,0,0,0,0,0,0,0,0,-0.0283,-0.0284,-0.0286,-0.0284,-0.0282,-0.0267,-0.025,-0.0247,-0.0256,-0.0268,-0.0254,-0.0253,-0.0211,-0.0208,-0.0209,-0.0189,-0.0187,-0.0182,-0.0181,-0.018,-0.0179,0,0,0,0,0,0,0,-0.0283,-0.0284,-0.0293,-0.0285,-0.0283,-0.0265,-0.0265,-0.025,-0.0245,-0.0267,-0.0264,-0.0259,-0.021,-0.0211,-0.0207,-0.0186,-0.0182,-0.018,-0.0179,-0.0178,-0.0154,-0.0155,0,0,0,0,0,0,-0.0284,-0.0285,-0.0294,-0.0293,-0.0278,-0.0266,-0.0265,-0.0274,-0.0246,-0.0241,-0.026,-0.0258,-0.0214,-0.0209,-0.0205,-0.0192,-0.018,-0.0178,-0.0177,-0.0154,-0.0155,-0.0155,0,0,0,0,0,0,-0.0285,-0.0286,-0.0295,-0.0285,-0.0285,-0.0267,-0.0278,-0.0274,-0.0276,-0.0241,-0.0235,-0.0264,-0.0214,-0.0207,-0.0194,-0.019,-0.0177,-0.0176,-0.0153,-0.0154,-0.0155,-0.0176,0,0,0,0,0,0,-0.0285,-0.0287,-0.0298,-0.0286,-0.0285,-0.0298,-0.0278,-0.0275,-0.0273,-0.0271,-0.0243,-0.0236,-0.0212,-0.0197,-0.0193,-0.0187,-0.0174,-0.0153,-0.0154,-0.0155,-0.0175,-0.0178,-0.018,0,0,0,0,0,-0.0284,-0.0304,-0.0299,-0.03,-0.0301,-0.0298,-0.0297,-0.0282,-0.0274,-0.028,-0.0259,-0.0237,-0.0199,-0.0196,-0.0191,-0.0184,-0.0153,-0.0154,-0.0155,-0.0174,-0.0177,-0.018,0,0,0,0,0,0,-0.0307,-0.0303,-0.0297,-0.0316,-0.0308,-0.0293,-0.0299,-0.0288,-0.0279,-0.0279,-0.0244,-0.0237,-0.0225,-0.0207,-0.0205,-0.0182,-0.0171,-0.0171,-0.0188,-0.0191,-0.0193,-0.0176,-0.0173,0,0,0,0,0,-0.0317,-0.0331,-0.0318,-0.0334,-0.0331,-0.0317,-0.0315,-0.0308,-0.0295,-0.0291,-0.0267,-0.0245,-0.0227,-0.0211,-0.0197,-0.0184,-0.0142,-0.0176,-0.0179,-0.0181,-0.0164,-0.009,-0.0083,-0.0158,-0.0158,-0.0158,0,0,-0.0332,-0.033,-0.0339,-0.0339,-0.0334,-0.0332,-0.0315,-0.032,-0.0313,-0.0285,-0.0272,-0.0258,-0.0228,-0.0214,-0.0206,-0.0194,-0.0146,-0.0182,-0.0184,-0.0165,-0.009,-0.0082,-0.0075,-0.0159,-0.0159,-0.0159,0,0,-0.0358,-0.0365,-0.0378,-0.0373,-0.0366,-0.0354,-0.0357,-0.0344,-0.0333,-0.0326,-0.03,-0.0276,-0.0259,-0.0221,-0.0204,-0.021,-0.0168,-0.0219,-0.0204,-0.0134,-0.0126,-0.0119,-0.0084,-0.0073,-0.0211,-0.0211,-0.0211,0,-0.0374,-0.0387,-0.0381,-0.0384,-0.0379,-0.0364,-0.0368,-0.0357,-0.034,-0.0321,-0.0327,-0.0273,-0.0254,-0.0204,-0.0211,-0.0211,-0.0179,-0.0195,-0.0134,-0.0125,-0.0117,-0.0083,-0.0071,-0.0212,-0.0212,-0.0212,-0.0212,0,-0.0399,-0.0408,-0.0416,-0.0412,-0.0407,-0.0414,-0.0391,-0.0383,-0.0371,-0.0345,-0.0308,-0.0279,-0.0237,-0.0235,-0.0226,-0.0164,-0.0165,-0.0151,-0.0121,-0.0111,-0.0077,-0.0064,-0.0214,-0.0213,-0.0213,-0.0213,0,0,-0.044,-0.0433,-0.0438,-0.0437,-0.0423,-0.0425,-0.0407,-0.0378,-0.036,-0.0333,-0.0295,-0.0257,-0.0231,-0.0209,-0.0186,-0.0127,-0.0061,-0.0119,-0.0115,-0.0077,0.0072,0.0048,0.006,-0.0035,-0.0032,-0.003,0.0063,0,-0.0459,-0.0474,-0.0459,-0.0469,-0.0473,-0.0446,-0.043,-0.0401,-0.0371,-0.0333,-0.0273,-0.0242,-0.0223,-0.0212,-0.0143,-0.0092,-0.0023,-0.0089,0.0049,0.0053,0.004,0.0077,-0.0021,0.0073,0.0077,0.0079,0.008,0,-0.0486,-0.0491,-0.0506,-0.0493,-0.0491,-0.0493,-0.0462,-0.0445,-0.0376,-0.0351,-0.0284,-0.0244,-0.0162,-0.0153,-0.0009,-0.0055,0.0015,0.0064,0.0069,0.0072,0.0056,0.0067,0.0105,0.0103,0.0101,0.0099,0.0098,0,-0.0521,-0.0522,-0.0536,-0.0535,-0.0518,-0.0516,-0.0505,-0.0453,-0.0435,-0.0361,-0.034,-0.0228,-0.0191,-0.0071,0.0024,0.0012,0.0179,0.0178,0.0233,0.0231,0.0233,0.0225,0.0313,0.0313,0.0313,0.0312,0.0312,0,-0.0544,-0.0557,-0.056,-0.057,-0.0587,-0.0558,-0.0558,-0.0525,-0.0474,-0.0444,-0.0355,-0.0307,-0.0166,-0.0062,0.0038,0.0169,0.0201,0.0253,0.0269,0.0214,0.0203,0.0241,0.0231,0.0316,0.0315,0.0314,0.0314,0,-0.0575,-0.0576,-0.0599,-0.0601,-0.0608,-0.0623,-0.0615,-0.0604,-0.0552,-0.0511,-0.049,-0.0364,-0.0227,-0.0085,0.0096,0.017,0.0303,0.0349,0.0262,0.0268,0.0301,0.0289,0.0421,0.0422,0.0422,0.0422,0.0422,0,-0.0585,-0.0603,-0.0638,-0.0663,-0.067,-0.0688,-0.0696,-0.0656,-0.0635,-0.054,-0.0516,-0.0383,-0.0285,-0.0042,0.01,0.0302,0.0331,0.0389,0.0372,0.0318,0.032,0.0308,0.0295,0.0423,0.0423,0.0423,0.0423,0,-0.0604,-0.0628,-0.0649,-0.0707,-0.0737,-0.0755,-0.0758,-0.0749,-0.0683,-0.0646,-0.0515,-0.0377,-0.0221,-0.0039,0.0116,0.0262,0.0342,0.0392,0.0392,0.0378,0.0321,0.032,0.0308,0.0424,0.0424,0.0424,0.0423,0,-0.0621,-0.065,-0.0691,-0.0735,-0.0782,-0.0797,-0.0796,-0.0748,-0.0716,-0.0599,-0.056,-0.0375,-0.0267,-0.0058,0.0086,0.0221,0.0254,0.0287,0.0294,0.0295,0.0225,0.0132,0.0211,0,0,0,0,0,-0.0626,-0.0661,-0.071,-0.0756,-0.0803,-0.0822,-0.082,-0.0801,-0.0746,-0.0657,-0.06,-0.0443,-0.0206,-0.01,0.0035,0.0072,0.0256,0.023,0.0292,0.0429,0.0428,0.0365,0,0,0,0,0,0,-0.0631,-0.0683,-0.0708,-0.076,-0.0795,-0.0832,-0.0832,-0.0794,-0.0727,-0.0654,-0.0522,-0.0433,-0.0203,-0.0286,0.003,0.0071,0.0124,0.0347,0.035,0.0429,0.0428,0.0427,0.0363,0,0,0,0,0]}]]